Hourly Weather Roundup
Issued by NWS Central Illinois

Home | Current Version | Previous Version | Text Only | Print | Product List | Glossary On
Versions: 1 2 3 4 5 6 7 8 9 10 11 12 13 14 15 16 17 18 19 20 21 22 23 24 25 26 27 28 29 30 31 32 33 34 35 36 37 38 39 40 41 42 43 44 45 46 47 48 49 50
000
NZUS43 KILX 272110
HWRILX

AREA WEATHER ROUNDUP
NATIONAL WEATHER SERVICE, LINCOLN IL
300 PM CST TUE JAN 27 2015


CITY           SKY/WX    TMP DP  RH WIND       PRES   REMARKS
BLOOMINGTON    CLOUDY    32  27  82 NE8       30.19R WCI  25
CHAMPAIGN      CLOUDY    31  26  82 N8        30.17R WCI  23
DECATUR        CLOUDY    33  27  78 NE8       30.18R WCI  26
FLORA          CLOUDY    35  30  80 N9        30.18R WCI  28
GALESBURG      CLOUDY    28  25  86 NE7       30.21R WCI  21
JACKSONVILLE   CLOUDY    35  29  78 NE5       30.20R WCI  31
LACON          CLOUDY    30  24  78 CALM      30.21R
LAWRENCEVILLE  CLOUDY    33  30  88 N7        30.18R WCI  27
LITCHFIELD     CLOUDY    33  28  81 N7        30.18R WCI  27
$$


CITY           SKY/WX    TMP DP  RH WIND       PRES   REMARKS
LINCOLN        CLOUDY    33  28  82 N5        30.21R WCI  29
MACOMB         CLOUDY    30  27  87 NE7       30.23R WCI  23
MATTOON        CLOUDY    32  26  78 N12       30.16R WCI  23
MT CARMEL AP   CLOUDY    36  32  87 N7        30.17R WCI  30
OLNEY-NOBLE AP CLOUDY    32  28  86 CALM      30.18R
PARIS          CLOUDY    31  28  90 N3        30.18R
PEORIA         CLOUDY    32  24  72 N5        30.21R WCI  27
PONTIAC        CLOUDY    31  28  90 E3        30.20R FOG
RANTOUL        CLOUDY    32  26  79 NE8       30.17S WCI  25
ROBINSON       CLOUDY    32  30  92 N6        30.18R WCI  26
SPRINGFIELD    CLOUDY    32  26  78 N8        30.20R WCI  25
TAYLORVILLE    CLOUDY    32  28  86 N8        30.20R WCI  25
$$

...REGIONAL REPORTS...


CITY           SKY/WX    TMP DP  RH WIND       PRES   REMARKS
CHICAGO O`HARE MOSUNNY   30  17  58 NE10      30.19R WCI  21
KANKAKEE       SUNNY     31  21  65 N6        30.19S WCI  25
MOLINE         CLOUDY    30  22  72 E5        30.20S WCI  25
MOUNT VERNON   CLOUDY    39  28  65 N7        30.17R WCI  34
PITTSFIELD     CLOUDY    40  32  71 N8        30.18R
QUINCY         CLOUDY    38  31  76 NE9       30.18R WCI  31
ROCKFORD       CLOUDY    31  22  69 CALM      30.21R
$$


CITY           SKY/WX    TMP DP  RH WIND       PRES   REMARKS
BURLINGTON     CLOUDY    32  26  78 NE7       30.20R WCI  26
CEDAR RAPIDS   CLOUDY    31  25  78 E5        30.18R WCI  26
DES MOINES     MOSUNNY   46  30  53 E7        30.13F
KIRKSVILLE     SUNNY     45  33  63 E5        30.15S
OTTUMWA        MOSUNNY   39  30  70 NE7       30.16R WCI  34
ST LOUIS       PTSUNNY   44  31  60 N5        30.17R
$$


CITY           SKY/WX    TMP DP  RH WIND       PRES   REMARKS
TERRE HAUTE    CLOUDY    31  26  82 N7        30.17R WCI  24
EVANSVILLE     CLOUDY    36  29  75 N6        30.17R HAZE    WCI  31
INDIANAPOLIS   MOSUNNY   29   9  43 N5        30.14R WCI  24
LAFAYETTE      SUNNY     29  13  51 N7        30.18R WCI  22
MADISON        LGT SNOW  28  23  81 NE6       30.21R WCI  22
MILWAUKEE      PTSUNNY   29  16  58 NE9       30.22R WCI  20
$$




USA.gov is the U.S. government's official web portal to all federal, state and local government web resources and services.